Flag for Poland Weather past 2 weeks in Kraków, Poland

Now
50 °F

Passing clouds.


Feels Like: 47 °F
Forecast: 46 / 62 °F
Wind: 7 mph from Northwest

Location: Krakow Airport

Current Time: May 27, 2015 at 8:18:40 AM

Latest Report: May 27, 2015 at 8:00 AM


Visibility: N/A

Pressure: 29.98 "Hg

Humidity: 71%

Dew point: 41 °F

Location of KrakówLocation

Historic Weather in Kraków — Graph

°F

Kraków temperature yesterday

Maximum temperature yesterday: 57 °F (at 12:00 AM)
Minimum temperature yesterday: 54 °F (at 10:30 PM)
Average temperature yesterday: 56 °F

Past Weeks' High & Low Weather Summary

 TemperatureHumidityPressure
High77 °F (May 19, 12:30 PM)100% (May 15, 1:00 AM)30.27 "Hg (May 15, 1:00 AM)
Low37 °F (May 15, 3:00 AM)30% (May 18, 1:30 PM)29.74 "Hg (May 14, 7:00 AM)
Average56 °F76%29.99 "Hg
* Reported May 12 7:00 AM — May 27 7:00 AM, Kraków, Weather by CustomWeather, © 2015

Note: Actual official high and low records may vary slightly from our data, if they occured in-between our weather recording intervals... More about our weather records

Advertising

Kraków weather history for previous 24 hours

 ConditionsComfort  
Time TempWeatherWind HumidityBarometerVisibility
7:00 AM
Wed, May 27
48 °FPassing clouds.7 mph76%29.98 "HgN/A
6:30 AM48 °FPassing clouds.8 mph76%29.95 "HgN/A
6:00 AM48 °FPassing clouds.8 mph82%29.95 "HgN/A
5:30 AM50 °FPassing clouds.7 mph76%29.95 "HgN/A
5:00 AM50 °FPartly cloudy.6 mph88%29.92 "HgN/A
4:30 AM50 °FLight rain. Passing clouds.6 mph82%29.92 "HgN/A
4:00 AM50 °FLight rain. Passing clouds.7 mph82%29.92 "HgN/A
3:30 AM52 °FPassing clouds.7 mph82%29.92 "HgN/A
3:00 AM52 °FPassing clouds.8 mph82%29.92 "HgN/A
2:30 AM52 °FPassing clouds.8 mph88%29.89 "HgN/A
2:00 AM52 °FLight rain. Passing clouds.13 mph88%29.89 "HgN/A
1:30 AM52 °FPassing clouds.8 mph88%29.89 "HgN/A
1:00 AM52 °FPassing clouds.9 mph88%29.86 "HgN/A
12:30 AM54 °FPassing clouds.9 mph88%29.86 "HgN/A
12:00 AM54 °FPassing clouds.9 mph88%29.86 "HgN/A
11:30 PM
Tue, May 26
54 °FPassing clouds.9 mph88%29.86 "HgN/A
11:00 PM54 °FLight rain. Passing clouds.7 mph94%29.86 "HgN/A
10:30 PM54 °FLight rain. Partly cloudy.9 mph94%29.86 "HgN/A
10:00 PM55 °FLight rain. Passing clouds.12 mph88%29.86 "Hg5 mi
9:30 PM55 °FLight rain. Partly sunny.12 mph88%29.83 "HgN/A
9:00 PM55 °FLight rain. Broken clouds.12 mph88%29.83 "HgN/A
8:30 PM55 °FPartly sunny.9 mph88%29.83 "HgN/A
8:00 PM55 °FBroken clouds.9 mph94%29.83 "HgN/A
7:30 PM55 °FLight rain. Broken clouds.10 mph94%29.83 "Hg5 mi
7:00 PM57 °FLight rain. Partly sunny.9 mph88%29.83 "Hg5 mi
6:30 PM57 °FLight rain. Partly sunny.9 mph88%29.80 "Hg4 mi
6:00 PM57 °FLight rain. Partly sunny.8 mph94%29.80 "HgN/A
5:30 PM57 °FLight rain. Partly sunny.6 mph100%29.80 "Hg4 mi
5:00 PM57 °FLight rain. Fog.5 mph94%29.80 "Hg3 mi
4:30 PM57 °FRain. Broken clouds.3 mph94%29.80 "Hg4 mi
4:00 PM57 °FLight rain. Partly sunny.9 mph94%29.80 "Hg4 mi
3:30 PM57 °FLight rain. Partly sunny.7 mph94%29.80 "Hg4 mi
3:00 PM57 °FLight rain. Partly sunny.7 mph94%29.80 "Hg4 mi
2:30 PM57 °FPartly sunny.7 mph94%29.80 "Hg4 mi
2:00 PM57 °FFog.5 mph94%29.80 "Hg3 mi
1:30 PM57 °FFog.5 mph94%29.80 "Hg2 mi
1:00 PM57 °FFog.6 mph94%29.80 "Hg3 mi
12:30 PM57 °FLight rain. Fog.2 mph94%29.80 "Hg2 mi
12:00 PM57 °FLight rain. Fog.2 mph94%29.80 "Hg3 mi
11:30 AM57 °FLight rain. Fog.5 mph94%29.80 "Hg3 mi
11:00 AM57 °FPartly sunny.5 mph94%29.80 "HgN/A
10:30 AM57 °FPartly sunny.3 mph94%29.80 "HgN/A
10:00 AM57 °FMore clouds than sun.3 mph94%29.77 "HgN/A
9:30 AM57 °FMostly cloudy.3 mph94%29.77 "Hg4 mi
9:00 AM57 °FMostly cloudy.1 mph94%29.77 "Hg5 mi
8:30 AM57 °FPartly sunny.1 mph94%29.77 "Hg5 mi
8:00 AM57 °FPartly sunny.1 mph94%29.77 "Hg5 mi
Weather by CustomWeather, © 2015

See weather overviewHow to use our weather pages